Wind_Speed
8 8 11 11 8 6 8 11 12 11 9 9 9 9 11 12 12 14 15 16 17 16 14 16 17 20 23 23 22 19 13 11 15 20 24 26 26 25 25 25 23 22 20 19 18 18 17 16 16 15 13 12 11 11 12 13 13 14 13 13 14 15 16 18 19 14 12 11 11 11 9 7 7 8 8 9 10 11 12 13 13 14 16 19 22 26
8 10 10 7 4 4 5 8 10 11 9 9 9 10 13 14 14 15 15 15 16 14 11 12 15 20 23 24 22 19 13 10 10 13 16 22 26 26 25 24 23 23 22 20 19 19 19 19 19 18 16 14 12 11 11 13 14 14 14 14 13 15 16 18 18 13 11 10 10 10 8 7 6 6 7 7 8 9 10 10 10 11 13 15 18 22
10 10 5 2 3 4 4 6 8 10 8 8 9 11 12 13 14 14 11 11 10 8 7 10 13 18 22 23 21 18 15 12 11 13 15 21 25 25 24 24 24 24 23 21 21 21 21 21 21 20 17 15 13 12 12 14 15 15 14 14 13 15 16 17 18 13 10 10 9 9 8 7 6 6 6 7 7 8 9 9 9 9 10 12 14 17
10 5 3 1 3 5 6 7 8 8 8 8 10 11 13 14 14 13 12 10 8 7 8 10 12 16 18 20 20 19 19 17 15 17 19 22 26 26 26 25 25 25 23 22 22 22 23 23 22 20 18 17 15 14 14 15 15 14 14 13 13 15 15 17 17 13 10 10 9 8 7 6 5 4 4 4 5 5 7 7 7 8 9 10 11 13
12 7 4 9 8 8 9 10 11 11 11 11 12 14 15 16 14 13 13 12 10 10 11 13 13 15 17 18 19 19 20 20 19 19 21 24 26 27 27 28 28 27 25 23 23 24 25 25 23 19 18 18 16 15 15 15 15 15 13 13 15 15 15 16 17 14 12 10 8 7 6 4 2 1 1 1 2 1 2 4 5 6 7 9 10 11
14 11 10 12 12 12 13 13 14 15 15 16 15 15 15 15 15 13 11 9 9 10 12 13 10 11 16 17 16 17 18 19 20 22 24 25 27 28 30 30 31 30 28 25 25 25 25 24 20 18 18 18 17 16 16 15 16 15 14 14 15 15 14 16 17 15 12 9 8 7 5 3 1 1 1 2 3 1 0 1 3 4 5 7 8 10
14 12 11 12 14 14 14 16 16 16 17 17 16 14 13 13 13 12 10 7 8 8 8 10 8 8 14 16 14 17 18 17 20 23 26 26 26 28 31 32 31 31 30 28 27 26 26 23 18 17 17 15 15 15 16 15 15 16 16 15 15 14 14 15 16 16 13 9 8 7 6 3 1 0 0 1 1 1 3 2 3 3 3 4 5 7
11 10 10 13 14 14 14 15 15 16 17 16 15 11 9 9 8 8 8 6 6 7 6 9 11 11 14 17 16 18 19 19 20 22 25 25 23 25 29 29 27 26 29 30 27 27 27 23 19 18 16 13 13 13 13 14 14 16 16 15 14 14 14 14 15 16 13 10 9 8 6 4 3 3 2 1 2 5 6 6 6 5 4 4 3 4
13 10 9 10 12 12 12 12 13 14 16 15 13 10 8 8 9 8 7 5 5 5 6 8 11 9 9 15 19 20 22 20 18 17 17 19 20 22 26 26 23 21 24 29 27 26 26 22 19 18 14 13 12 11 10 11 13 15 16 16 15 14 14 14 15 16 14 11 9 8 7 6 5 5 5 4 5 7 9 9 9 9 8 7 6 6
16 13 11 9 8 7 8 10 11 12 13 12 11 11 11 11 11 10 7 7 5 5 6 7 10 6 6 15 15 14 15 13 12 13 14 14 15 17 22 23 23 22 22 25 26 25 24 20 17 16 14 13 12 11 10 10 11 15 16 16 16 15 14 14 15 16 14 12 10 8 8 7 7 7 8 7 8 10 11 12 12 12 11 11 10 10
19 17 13 10 9 8 9 10 11 11 11 11 11 12 12 11 12 11 8 7 4 4 7 9 10 4 3 10 5 3 10 12 13 15 13 12 11 11 17 20 21 23 22 21 22 24 24 20 17 16 15 15 14 12 11 11 12 14 16 17 16 16 15 15 16 16 14 11 10 10 9 9 9 9 10 10 11 13 14 14 14 13 13 12 12 12
18 19 17 13 11 10 10 11 13 13 12 11 10 11 10 8 9 9 8 7 4 4 6 8 7 3 3 9 8 9 13 13 14 16 14 11 9 6 9 13 16 21 22 20 18 20 22 21 20 18 15 14 14 14 14 14 13 12 13 15 16 17 16 16 16 16 14 11 10 11 11 10 10 11 11 11 13 15 15 15 14 13 13 12 12 13
11 16 17 16 15 14 13 14 15 15 14 12 12 11 7 2 2 4 5 4 4 6 7 7 5 2 6 14 14 12 12 13 15 17 16 12 8 6 5 8 13 19 22 22 18 17 19 20 19 17 15 13 12 11 12 14 12 10 10 10 11 13 14 15 15 15 13 11 11 11 12 12 12 12 12 12 13 15 15 14 13 13 12 12 12 12
7 8 12 14 15 15 15 16 16 14 13 13 14 13 7 2 2 2 3 1 3 6 7 6 5 4 7 9 10 11 14 16 16 14 15 14 8 9 10 10 14 19 23 24 21 18 17 17 16 14 14 14 10 5 6 10 12 10 9 9 8 8 11 12 13 13 13 12 12 12 12 13 13 13 12 13 14 14 14 13 13 12 12 12 11 12
5 6 6 9 9 9 11 14 14 14 12 13 13 13 12 9 4 3 3 3 4 5 3 4 2 2 2 4 11 15 16 13 11 12 15 15 11 9 11 12 13 17 21 24 25 23 19 17 15 12 13 13 9 6 5 7 11 11 10 10 9 8 9 10 11 12 12 12 12 12 13 13 13 12 12 13 14 13 13 12 12 12 11 11 11 11
9 10 9 10 10 9 11 11 11 13 12 10 12 12 12 14 12 8 5 5 4 2 2 5 5 5 6 8 10 10 10 7 8 14 16 16 14 12 10 11 13 15 17 21 26 27 23 20 16 11 10 11 10 9 8 7 10 12 11 10 10 10 9 10 11 11 11 11 11 12 12 13 13 12 12 13 14 13 12 11 11 11 10 10 10 10
8 11 13 14 14 14 15 12 11 12 9 6 9 10 9 11 12 8 5 3 1 1 2 5 6 9 9 5 2 5 10 8 10 16 18 18 19 18 15 12 12 13 15 19 24 26 24 23 18 12 10 11 11 10 9 8 9 11 11 11 11 11 12 12 12 12 12 12 12 12 12 13 13 12 12 13 13 12 11 11 11 11 11 11 10 10
12 14 14 13 13 12 13 12 10 11 10 9 9 9 8 7 8 7 3 1 1 1 3 5 8 10 7 3 3 9 10 8 8 10 11 12 15 16 16 15 14 15 17 18 21 24 25 25 21 16 13 13 13 13 12 12 12 13 13 13 12 13 13 14 14 13 13 13 12 13 13 13 14 13 13 13 13 13 12 12 12 13 12 12 12 12
13 15 15 15 16 13 11 12 11 9 10 11 10 9 7 5 4 4 3 0 1 2 2 5 9 12 13 9 7 6 5 3 1 3 6 7 8 9 10 10 10 11 15 18 19 21 23 24 22 19 17 15 14 15 15 16 17 17 16 15 15 14 15 16 16 15 15 15 14 14 14 14 15 14 14 14 14 14 13 13 14 14 14 14 14 14
13 13 12 15 18 16 13 13 14 11 9 9 9 9 7 5 3 4 3 2 2 2 2 3 5 8 13 13 10 8 6 4 3 3 5 6 7 9 10 10 8 7 10 13 16 17 18 20 22 23 22 20 17 16 17 18 17 17 17 16 15 15 16 17 18 18 18 17 16 15 15 15 16 16 15 15 16 16 14 14 15 16 16 17 16 16
10 12 11 11 14 14 10 9 12 12 10 9 10 10 8 6 4 5 8 6 4 2 2 2 2 5 10 11 10 9 7 6 5 4 4 4 5 6 7 11 13 12 11 12 14 14 13 16 19 20 22 22 22 21 20 21 19 19 20 18 16 18 19 18 19 20 20 19 18 17 16 16 16 17 17 17 17 17 16 16 17 18 19 19 19 19
8 10 11 11 13 13 9 9 11 12 12 12 12 12 13 12 7 3 5 7 7 6 4 3 2 4 9 11 8 7 7 7 7 6 6 7 7 7 6 8 12 13 14 15 16 16 14 13 13 14 15 16 18 20 21 21 22 22 22 20 20 22 22 21 23 23 23 21 20 19 19 18 18 18 19 19 18 17 17 18 18 19 21 22 22 22
11 11 12 13 14 13 11 11 12 12 13 13 13 13 14 14 10 6 4 4 7 10 8 4 3 3 11 14 9 7 7 7 7 8 9 10 10 10 8 7 8 9 9 11 15 17 18 18 18 20 19 15 13 14 16 18 19 21 22 21 22 22 20 21 23 26 27 25 23 23 22 21 21 21 21 21 20 18 17 17 18 20 21 23 24 24
10 9 10 11 12 14 15 16 17 16 15 14 13 10 8 9 9 8 8 6 8 11 9 4 1 4 15 14 6 4 4 4 6 9 11 12 13 12 11 10 9 9 9 10 11 15 18 21 23 26 27 24 20 17 18 19 20 21 21 21 23 24 23 22 22 25 28 27 26 27 28 26 24 24 24 23 22 20 19 19 19 20 22 23 24 25
10 8 8 7 6 8 10 11 15 17 16 15 13 10 8 8 7 8 9 8 7 10 10 7 3 9 20 12 1 2 5 7 9 11 13 13 14 15 15 16 15 15 16 17 16 16 17 18 19 20 22 26 27 24 22 22 22 23 23 23 23 25 26 25 24 24 26 27 27 29 30 30 29 26 26 25 24 22 22 22 22 23 23 23 24 26
14 12 11 8 5 4 5 7 12 16 17 18 16 14 12 9 8 8 8 7 6 6 9 10 6 11 21 10 11 10 13 16 15 15 15 15 15 16 18 20 22 23 24 25 25 24 23 21 21 20 19 21 25 26 26 24 23 24 24 25 24 24 24 25 26 27 27 27 28 29 30 33 33 30 28 28 27 26 26 26 26 26 26 25 25 26
14 14 13 12 11 11 12 13 15 16 18 20 19 18 17 14 14 15 11 12 12 10 14 19 16 13 18 19 20 19 19 19 18 18 18 19 19 20 20 21 23 24 25 26 28 28 28 28 28 27 26 25 25 27 28 27 27 26 26 25 25 24 23 22 24 27 27 25 25 26 28 31 34 34 32 30 30 30 30 30 29 29 29 28 27 28
16 16 16 16 17 16 16 15 14 15 17 19 19 20 19 18 20 20 17 17 16 13 19 26 24 23 25 25 24 24 21 19 19 20 21 21 22 22 22 22 22 22 23 24 25 27 29 30 31 31 31 29 28 28 29 29 28 29 29 28 27 27 26 23 23 24 24 24 24 25 25 27 33 39 38 35 33 33 34 33 32 32 32 31 30 29
15 16 16 18 20 19 18 16 15 16 18 19 19 19 18 18 20 20 20 20 17 16 22 27 24 23 26 25 24 24 22 20 19 19 20 21 21 21 22 21 21 23 24 25 27 29 31 31 32 32 31 30 29 29 30 30 30 29 30 30 29 30 30 29 27 26 26 26 26 26 27 28 32 38 41 40 37 37 38 36 35 35 34 33 32 32
14 14 12 14 17 19 19 19 19 20 20 21 21 20 19 18 19 20 21 21 20 22 26 26 24 23 23 21 20 19 19 20 19 18 18 19 19 20 21 22 22 23 25 26 27 29 30 31 31 31 30 29 29 29 29 30 31 30 30 30 30 31 31 32 33 33 32 30 28 27 27 28 31 34 39 44 43 42 42 41 40 38 36 35 34 34
17 16 13 13 17 19 18 18 18 18 20 22 22 20 20 19 20 21 23 24 24 27 27 25 24 23 20 20 18 16 16 17 16 16 16 16 17 19 20 21 22 23 24 24 25 25 27 28 28 29 30 30 30 30 29 30 31 31 31 31 31 31 31 32 33 33 35 35 32 30 28 28 30 32 38 46 47 47 47 45 44 43 40 38 37 35
24 23 21 18 19 23 22 19 19 20 22 27 28 26 24 23 23 24 25 25 26 27 25 24 26 25 21 20 20 17 16 15 14 15 15 16 18 19 20 22 23 24 25 26 27 28 29 29 30 31 31 31 32 31 30 30 31 32 34 34 33 33 33 33 33 33 34 34 34 34 33 31 31 32 39 47 49 50 51 48 46 45 41 40 39 36
29 28 28 23 21 27 27 21 21 21 20 26 32 29 24 23 24 25 26 27 28 28 26 25 26 24 20 17 17 16 15 15 15 16 17 19 20 22 23 25 26 27 28 29 31 32 33 33 33 33 33 32 31 31 30 30 31 32 34 36 37 38 37 36 36 35 35 35 35 35 35 35 35 35 40 47 48 49 50 45 42 43 42 41 39 36
31 29 30 26 23 29 29 21 16 14 13 19 24 20 16 18 20 21 23 25 27 28 26 24 22 20 18 17 17 17 18 18 19 20 21 21 22 23 25 26 27 28 29 30 31 32 33 33 33 33 33 33 32 32 31 32 32 33 33 35 37 39 40 41 40 39 37 37 36 35 35 36 37 37 40 44 44 44 46 43 41 43 43 40 37 35
23 22 25 25 24 27 27 18 10 9 15 21 21 16 16 18 17 18 19 21 23 23 22 21 21 22 22 21 21 20 20 20 20 20 21 21 22 24 25 25 26 27 28 29 30 31 32 33 33 33 32 32 32 32 31 32 34 35 36 36 38 39 40 41 43 42 41 39 37 35 34 34 36 38 39 40 41 42 44 44 43 43 41 37 34 33
12 12 16 22 22 20 18 13 10 13 19 19 15 13 14 14 14 17 20 21 23 24 24 25 26 26 26 25 22 21 20 20 20 20 21 22 23 24 24 24 25 25 26 28 29 30 31 32 33 34 34 33 32 31 30 30 32 35 37 38 39 40 40 41 42 43 43 42 41 39 37 35 36 38 40 42 42 41 43 45 44 42 38 33 31 32
10 9 11 16 18 17 17 16 16 20 21 17 15 15 16 16 16 19 22 24 25 26 26 26 25 24 25 23 21 21 21 22 23 22 20 22 23 23 23 23 23 25 26 28 29 31 32 33 34 35 35 35 34 32 31 30 31 34 36 36 37 39 40 41 41 42 43 44 44 43 41 40 39 39 40 43 43 41 43 44 42 37 32 29 30 32
9 9 9 11 14 16 18 15 12 11 11 12 13 15 16 17 17 20 23 24 24 23 22 21 21 21 21 21 20 21 22 24 26 23 19 19 21 22 23 23 25 27 29 31 32 33 34 35 36 36 36 36 35 34 33 32 32 33 34 35 35 36 39 41 41 41 42 43 43 44 44 42 41 39 38 42 44 41 39 38 34 29 27 28 30 32
10 9 7 7 11 14 16 13 8 7 9 10 10 12 13 14 15 16 16 16 19 19 16 16 17 17 18 19 19 20 21 25 28 24 19 19 22 24 27 28 29 31 32 33 35 36 36 38 38 38 38 37 36 35 35 36 36 36 35 34 34 35 38 40 39 38 39 41 41 42 41 39 38 37 36 39 41 37 33 30 29 28 27 29 30 31
11 9 7 6 9 13 16 15 12 11 11 9 9 11 13 14 15 14 8 9 16 16 11 11 14 14 16 17 19 21 22 25 28 26 22 24 27 29 31 32 33 33 34 34 35 36 38 39 40 40 40 39 38 37 37 38 40 40 39 37 36 37 37 37 37 36 37 38 38 38 37 36 36 35 34 34 34 33 32 31 30 29 28 28 29 30
15 13 10 8 8 9 12 15 15 14 13 12 12 13 14 13 12 10 7 8 14 13 9 11 13 14 17 19 21 23 24 25 27 29 28 30 32 33 34 35 35 36 35 36 36 38 39 40 41 42 42 40 39 37 37 39 41 42 40 39 39 38 36 36 37 37 37 37 36 35 35 35 36 37 37 35 34 35 34 30 27 27 27 27 28 30
15 14 11 10 10 9 10 11 11 11 12 12 13 13 13 11 8 8 10 11 11 11 13 15 17 19 21 23 25 27 28 29 31 33 33 34 35 36 37 37 37 36 36 36 36 37 38 39 40 42 43 42 41 39 38 40 41 41 41 40 39 37 36 37 38 38 38 37 36 36 36 36 38 39 37 34 34 34 31 27 24 24 24 25 27 29
14 15 15 13 11 11 10 8 6 6 7 7 7 9 10 10 8 10 13 14 16 18 20 21 23 24 26 28 30 31 33 35 35 36 37 37 36 37 38 38 37 36 35 35 35 35 37 38 39 40 42 43 43 42 41 41 40 40 41 40 38 35 35 37 39 40 38 37 36 36 36 37 39 40 38 35 33 31 26 22 21 21 22 23 24 24
16 15 14 11 9 8 7 5 2 3 7 11 15 16 17 17 17 19 21 21 22 23 24 25 26 26 28 30 32 34 35 36 36 36 37 37 36 36 36 36 35 36 35 35 34 35 37 38 38 39 40 40 40 41 41 41 40 40 41 40 37 35 36 38 39 39 37 36 35 35 37 41 43 41 39 35 29 23 19 17 17 18 19 20 21 21
15 13 14 17 18 18 18 18 16 15 18 22 24 22 21 21 21 22 22 23 24 24 25 27 28 27 28 29 31 33 34 33 33 32 32 33 33 33 32 32 33 34 35 34 35 36 38 38 38 39 40 39 38 38 39 40 39 39 40 39 36 35 37 38 37 37 36 35 33 35 40 43 40 35 30 24 19 15 15 14 14 15 17 18 19 21
20 20 23 26 27 27 28 28 26 23 22 22 22 22 23 24 24 23 22 23 23 25 26 27 28 29 29 29 31 32 32 32 31 31 30 31 32 31 31 32 33 34 34 34 36 37 39 39 39 39 40 39 38 38 38 39 39 38 38 37 35 36 38 36 35 36 35 32 34 37 39 35 30 25 20 16 14 14 13 12 12 14 16 18 20 22
20 21 22 23 23 24 24 23 22 21 21 21 23 24 25 25 22 21 23 25 25 26 26 26 27 28 29 29 31 32 32 31 32 32 32 33 33 34 33 34 34 34 35 36 38 40 41 41 40 39 39 38 38 37 38 39 40 38 37 36 34 36 36 35 35 34 31 31 35 36 32 27 23 19 17 15 14 13 11 11 13 15 18 19 20 21
19 21 23 24 25 26 27 26 24 24 25 25 25 25 24 22 21 22 24 26 26 26 26 26 27 28 29 30 30 32 32 31 30 32 34 35 35 35 35 35 35 35 36 38 40 42 42 41 39 38 38 37 35 34 35 38 37 34 32 30 28 29 31 32 31 28 27 33 37 33 28 22 19 18 17 15 14 12 11 12 15 17 17 18 19 20
20 23 24 25 27 29 30 27 24 25 25 23 22 23 23 23 24 25 26 27 28 28 28 28 28 29 30 30 30 32 33 32 31 32 35 35 35 36 35 34 34 35 37 39 41 41 42 40 38 35 32 31 30 30 31 32 30 27 25 22 18 19 21 23 26 28 31 36 35 30 25 23 22 18 16 15 12 11 11 13 15 15 16 17 18 19
20 22 21 22 26 28 27 24 23 25 27 25 23 24 25 26 27 28 28 28 29 30 30 30 30 29 30 30 31 32 33 33 32 33 34 34 34 33 32 31 32 34 36 38 38 38 37 34 30 27 24 24 25 25 24 23 22 22 22 18 14 14 16 22 30 37 39 38 33 28 26 25 21 16 13 11 10 10 11 11 12 13 15 16 17 19
20 21 20 21 24 25 24 22 22 25 29 28 26 26 27 28 28 29 28 29 30 30 31 31 31 30 30 31 31 31 32 32 32 32 32 31 30 29 29 30 32 34 35 35 32 30 29 26 22 20 19 19 19 17 15 14 14 14 15 14 14 15 19 26 33 37 37 35 31 27 24 20 15 12 10 8 7 7 8 10 12 13 14 16 18 21
Wind_Direction
240 247 250 252 253 248 235 230 235 249 266 287 294 289 296 304 306 305 304 307 311 309 277 248 250 250 241 235 236 242 247 250 256 251 242 237 239 244 248 250 253 259 269 275 277 275 270 267 266 267 270 276 281 287 291 293 301 313 323 325 325 330 332 339 344 327 301 294 287 284 281 272 260 250 245 238 235 235 238 240 238 238 237 237 235 231
234 242 244 248 253 236 232 237 235 242 259 281 295 294 295 300 302 305 309 309 309 311 288 256 254 251 238 232 237 244 242 238 249 250 241 237 238 242 246 251 258 264 269 269 268 265 261 261 263 265 268 275 280 283 285 286 294 307 316 315 316 322 326 335 342 329 309 306 296 292 289 276 263 251 248 241 234 233 236 240 237 233 233 235 237 236
244 243 231 206 228 226 237 253 239 239 261 281 288 290 292 299 304 307 310 315 311 298 274 265 260 248 238 235 238 239 238 238 238 240 243 243 243 248 255 260 264 265 265 264 263 261 261 262 263 264 268 275 276 272 274 279 288 303 311 306 306 315 320 333 341 329 312 309 299 292 281 268 261 251 244 239 236 235 236 241 243 238 232 230 232 236
246 213 100 354 259 254 257 262 253 250 265 274 275 281 289 295 302 305 304 304 296 272 265 267 255 243 235 236 237 234 234 236 234 235 240 245 251 258 265 268 267 265 264 263 262 261 261 261 260 263 271 275 274 273 276 279 286 299 304 298 299 309 317 331 338 327 310 307 302 291 271 258 256 246 236 228 225 229 233 237 240 240 238 235 233 233
245 227 295 297 288 278 268 264 257 253 259 264 268 274 284 292 296 300 301 295 277 261 265 272 270 259 247 243 243 241 242 244 243 241 242 246 253 259 263 265 266 266 265 263 261 261 261 259 260 267 276 277 274 277 279 278 284 294 294 290 296 305 314 327 334 325 311 306 304 291 264 243 241 219 176 154 142 171 231 239 242 240 237 236 237 237
257 258 286 290 285 278 269 263 253 250 257 260 264 273 282 291 295 295 293 284 268 255 255 263 273 272 261 256 253 252 256 256 252 248 245 247 252 257 260 262 263 262 260 258 258 261 261 259 262 270 275 277 277 276 276 277 282 285 283 285 294 303 310 322 328 323 313 306 300 287 265 233 191 144 122 102 87 79 230 234 245 245 237 232 232 236
268 271 282 283 283 279 267 261 255 252 256 259 267 280 286 289 291 291 286 274 260 247 247 250 246 258 267 268 267 269 272 267 258 252 248 250 257 260 260 260 261 259 254 252 253 254 253 253 258 271 278 283 287 281 272 271 275 278 278 281 289 298 305 316 323 320 312 304 295 284 270 249 217 239 156 104 81 289 284 278 259 247 239 232 228 231
266 268 278 274 272 271 260 258 259 252 248 257 271 280 287 294 296 298 296 273 242 243 254 241 236 254 270 271 277 280 280 279 273 261 254 257 260 259 258 260 264 261 251 247 249 249 246 247 257 275 287 290 293 289 277 274 277 278 277 276 279 289 299 310 318 317 310 300 291 282 274 267 266 283 286 280 268 277 290 297 293 289 277 263 257 251
259 261 280 276 264 265 258 256 260 252 248 259 273 275 280 294 301 301 295 270 239 241 243 230 238 255 271 278 285 283 280 285 285 277 271 265 257 252 255 257 259 260 251 244 245 249 247 248 260 275 285 284 284 289 290 290 284 276 272 270 273 280 293 305 312 312 306 296 289 284 278 276 274 279 283 280 276 282 293 299 299 301 299 293 287 282
255 258 274 281 275 277 273 265 256 250 256 269 274 269 271 282 292 293 280 261 240 219 233 248 251 242 277 293 293 280 279 294 300 307 306 278 262 258 254 252 250 251 251 246 243 247 247 251 263 271 275 277 277 282 289 290 278 268 266 268 271 275 286 299 306 306 302 292 289 289 283 277 274 275 279 282 287 295 300 301 300 299 297 295 292 286
253 256 263 266 264 264 269 263 247 243 259 272 268 263 270 281 281 275 263 255 243 233 252 264 257 226 296 303 311 319 315 326 320 321 317 279 276 277 253 248 249 246 246 247 243 244 244 247 258 263 267 271 274 275 278 279 275 269 267 267 270 272 279 291 300 301 296 289 286 287 285 279 273 272 277 286 295 301 302 300 299 296 293 291 288 284
255 254 255 256 255 252 254 248 240 243 250 256 255 258 274 279 261 255 255 251 245 265 267 263 260 186 209 275 305 332 329 334 327 329 330 298 288 293 247 239 246 245 245 244 239 241 241 244 252 256 258 262 268 269 268 271 278 280 277 276 275 274 277 286 294 293 291 286 281 281 284 281 274 271 275 285 294 299 299 298 296 293 291 289 284 281
273 259 252 254 259 258 256 249 245 247 246 249 247 248 266 291 246 254 257 249 238 256 264 261 266 225 245 274 299 319 328 333 327 330 334 317 285 271 258 239 241 244 245 243 237 237 239 243 248 249 250 255 261 266 265 265 273 284 285 282 281 280 280 283 284 284 285 284 278 278 281 280 275 272 274 283 291 294 295 295 295 293 291 288 283 278
303 278 253 250 260 261 257 251 247 245 247 255 248 240 235 146 81 277 258 288 271 266 267 255 262 265 259 285 309 319 326 327 323 324 324 319 301 268 260 250 246 245 242 239 235 235 237 240 244 244 244 245 247 261 272 264 263 270 278 281 282 277 275 276 275 275 278 279 276 276 280 282 280 277 276 282 288 292 294 294 295 295 294 290 284 277
279 283 253 242 254 258 254 251 251 255 264 269 255 239 230 214 212 246 233 224 247 269 267 212 225 227 210 327 328 318 323 327 322 318 312 311 314 289 261 249 250 253 248 239 233 234 236 237 243 245 239 236 238 248 263 262 259 264 275 281 279 267 263 266 267 269 274 275 273 274 280 288 290 285 282 284 287 291 293 296 298 299 298 295 288 281
254 263 262 255 251 255 261 258 258 267 270 262 247 236 235 236 239 243 243 239 235 279 275 217 233 260 272 315 332 319 319 322 305 304 305 305 309 303 281 258 246 247 249 241 234 234 235 237 241 243 236 236 241 245 250 257 259 264 274 282 280 267 257 259 262 266 271 272 271 272 279 289 293 292 289 287 288 290 293 296 300 302 303 300 293 284
243 257 269 263 249 247 255 252 251 261 261 240 240 248 253 251 244 239 247 259 246 310 269 231 247 267 273 296 339 305 307 313 303 300 300 299 297 298 298 288 263 245 240 239 235 232 230 231 232 230 230 234 237 244 255 263 265 269 274 278 282 272 259 256 259 262 267 270 269 268 272 282 288 289 288 287 288 291 294 298 300 304 308 308 301 290
250 258 263 251 235 230 235 235 238 248 248 236 239 255 261 248 234 229 225 73 63 270 250 239 250 258 253 224 265 287 297 314 314 298 287 280 278 279 279 278 274 257 243 241 237 230 226 226 224 222 228 235 240 246 253 260 267 272 275 277 280 279 270 262 261 266 270 271 269 265 265 274 282 281 281 285 290 293 296 298 300 303 307 308 306 298
251 255 252 236 230 228 227 235 243 246 251 247 240 244 249 241 237 240 230 140 246 252 265 253 247 252 254 243 228 247 277 304 293 213 214 216 214 213 221 239 258 255 244 242 240 234 230 228 225 223 226 231 240 250 254 260 263 265 272 277 278 281 279 269 263 265 269 270 270 267 263 266 271 272 274 282 291 295 297 297 298 302 305 307 305 301
239 242 249 235 232 240 244 248 249 237 231 236 232 229 232 235 259 277 279 274 238 224 261 272 249 249 256 242 212 216 248 243 207 211 219 209 196 192 196 209 232 253 245 238 236 232 231 232 232 232 231 230 236 247 255 262 264 263 265 267 270 275 278 274 267 263 265 269 271 270 267 267 268 266 267 277 288 295 297 297 299 303 305 307 306 302
236 231 244 234 229 242 249 246 246 238 230 230 228 227 236 245 254 276 281 274 252 219 182 210 270 248 231 219 212 225 230 213 218 242 235 226 228 228 225 224 232 241 239 234 233 230 232 240 243 244 240 235 235 238 245 254 259 262 263 262 264 268 271 275 274 267 266 270 272 271 272 272 270 266 264 270 283 292 297 299 300 303 305 307 307 303
261 249 254 250 245 251 250 240 246 251 257 263 258 253 260 266 261 245 261 259 249 252 233 189 270 245 191 181 190 203 195 199 217 223 226 236 236 232 242 240 235 234 229 229 231 230 236 244 249 258 256 244 238 236 238 243 248 254 258 260 262 263 264 268 270 267 265 266 268 271 273 272 268 263 261 266 276 285 293 297 298 300 303 306 307 305
277 274 271 268 262 259 257 261 268 269 271 276 276 269 266 264 255 221 205 233 237 251 259 236 273 240 180 175 175 178 187 200 212 217 221 228 232 230 231 233 238 241 235 233 232 233 245 254 258 265 269 268 265 259 253 249 247 248 249 250 254 257 260 263 266 266 265 264 265 265 266 266 266 262 260 263 270 275 280 286 289 293 297 302 305 305
277 276 270 268 265 259 257 264 272 276 278 279 275 266 252 247 250 239 234 238 235 246 247 214 253 191 174 174 170 171 198 225 228 235 232 231 238 235 230 234 239 242 245 248 242 238 248 258 260 262 264 266 270 278 280 273 266 261 254 248 248 252 258 265 267 267 268 269 268 264 260 258 258 259 259 261 264 267 268 271 276 283 289 294 299 302
276 275 265 261 269 271 265 259 258 260 266 271 269 262 255 246 238 241 247 242 236 246 232 214 248 186 173 175 310 226 248 275 258 252 249 247 253 252 250 253 249 250 256 260 260 257 257 259 260 262 264 263 262 268 276 277 275 272 266 258 250 246 251 258 261 266 270 271 271 267 262 257 253 251 253 256 259 261 262 265 268 273 279 285 291 295
273 271 266 257 241 241 256 262 262 263 265 269 270 269 269 256 236 246 255 231 220 242 230 228 249 189 183 216 299 280 273 281 272 268 266 263 267 265 261 260 256 257 262 264 266 267 266 266 268 269 268 265 262 262 265 268 270 271 270 267 259 248 243 245 252 260 265 266 267 267 265 262 256 249 245 248 253 257 259 261 264 268 272 276 282 288
267 264 264 265 261 261 269 275 276 274 270 269 269 268 269 265 263 267 262 245 250 269 261 257 265 245 232 261 284 276 275 281 280 284 282 278 277 273 269 269 265 264 268 270 271 272 272 273 276 279 278 275 272 269 268 269 269 270 271 270 267 259 247 239 243 252 260 264 265 264 263 263 262 258 251 244 245 251 255 257 259 262 266 270 275 280
263 262 264 266 269 272 274 273 271 270 268 268 267 267 269 269 271 271 266 264 268 270 265 266 270 268 265 271 276 273 277 283 285 288 286 285 284 282 280 280 278 279 281 282 282 282 283 283 283 287 288 285 281 276 275 275 273 273 273 271 270 268 261 250 241 242 249 257 263 264 263 262 262 263 260 250 242 243 246 250 254 257 262 266 271 275
266 271 274 273 273 274 271 268 268 270 271 271 268 268 267 264 265 268 271 274 273 262 264 270 271 268 272 277 277 276 278 281 283 284 283 284 285 285 286 285 285 285 284 284 284 284 285 287 288 289 290 290 288 283 278 276 274 273 272 271 269 268 267 262 254 248 245 246 252 258 261 261 260 261 261 256 248 241 240 242 246 252 259 263 268 272
277 281 283 281 278 277 275 274 272 269 267 267 264 264 263 261 264 269 273 274 269 264 268 272 271 270 272 276 275 273 274 275 275 275 276 277 279 280 282 283 284 285 284 284 285 284 285 287 289 289 289 288 288 286 281 276 274 272 269 267 266 265 265 265 263 260 256 251 249 249 252 256 257 260 262 259 250 240 239 242 242 244 252 259 264 270
284 284 281 281 282 278 273 272 269 264 266 267 263 258 257 259 263 267 270 271 266 264 267 270 271 270 268 268 268 266 266 265 262 261 262 263 267 271 274 277 279 282 284 286 287 289 291 291 292 292 292 290 290 288 283 275 270 268 265 263 263 263 263 263 263 263 262 259 254 248 246 248 251 255 259 259 252 243 245 252 248 241 245 254 259 266
283 285 283 284 285 278 272 272 272 271 274 274 269 263 259 258 260 262 265 266 264 263 265 266 267 269 269 267 263 258 255 252 248 252 257 261 266 271 276 279 282 283 285 286 287 289 291 292 292 291 291 292 291 288 284 277 270 265 261 260 261 261 261 262 262 261 261 260 256 251 248 246 246 250 256 259 255 244 246 255 251 243 248 254 254 259
285 284 284 285 282 277 278 282 280 278 277 271 268 267 264 262 261 260 260 261 262 262 262 262 264 268 270 265 258 255 256 258 262 268 274 278 282 285 286 288 289 289 289 289 289 289 290 291 291 290 289 289 287 284 281 277 274 269 265 262 260 259 260 260 261 262 261 260 258 256 253 249 246 247 254 260 255 242 240 250 251 248 254 255 250 254
287 283 282 279 271 274 281 281 272 267 257 260 269 272 271 269 265 261 259 258 256 255 255 258 262 265 266 265 265 266 269 273 278 283 288 291 294 296 296 295 295 295 295 296 295 294 294 293 292 291 289 287 286 283 279 275 273 272 270 267 264 261 259 258 259 261 261 261 261 259 258 256 253 251 253 259 259 247 241 246 251 253 254 248 246 253
287 282 278 270 259 267 274 264 247 249 248 258 272 274 267 264 261 259 257 250 245 248 253 259 265 270 274 275 273 272 275 280 287 292 297 302 303 303 303 302 302 302 301 301 300 298 297 296 294 292 289 288 286 284 281 276 272 270 269 268 267 265 262 259 257 258 259 260 261 261 261 261 260 259 257 259 262 255 244 243 249 252 247 242 246 254
296 290 279 267 257 259 258 231 218 252 262 265 266 253 242 241 242 248 252 249 248 253 258 263 268 271 273 272 272 275 280 285 290 295 301 304 305 304 303 303 303 303 303 302 300 299 298 296 295 292 290 288 286 284 281 278 273 270 268 266 265 263 262 260 258 257 257 258 259 259 261 262 262 264 263 261 259 252 242 241 245 244 241 242 250 256
302 301 286 268 255 249 245 238 243 261 271 268 250 235 232 236 243 250 254 256 258 258 257 258 259 260 262 265 270 277 283 286 287 293 299 302 300 298 297 300 302 303 303 302 300 299 298 296 295 293 290 288 285 282 278 274 271 269 267 265 264 261 259 257 257 257 257 257 257 258 260 262 264 266 265 261 253 240 233 237 240 238 241 248 253 257
298 300 293 270 255 248 247 251 255 261 269 264 247 240 243 249 253 254 254 254 254 252 249 248 249 251 256 264 271 275 279 281 282 288 296 294 292 293 294 296 299 300 300 300 298 297 295 294 292 291 290 288 284 280 275 271 268 266 265 266 265 261 258 255 254 254 256 257 258 258 259 260 261 262 262 260 251 236 228 232 236 239 245 251 255 260
284 297 300 273 259 252 244 242 245 248 257 263 256 247 250 253 245 239 243 241 235 235 237 237 242 250 256 261 267 270 275 279 280 283 288 286 289 295 297 297 297 297 297 296 294 292 291 289 288 288 288 287 284 280 274 270 266 264 264 267 268 264 260 257 254 253 255 257 257 258 258 257 255 254 254 254 249 239 234 237 241 243 248 252 257 263
285 301 320 303 276 262 248 243 251 258 259 262 255 237 236 243 233 222 226 220 212 216 228 238 244 254 258 261 266 269 274 279 281 285 290 292 295 298 300 300 300 298 297 295 292 290 287 286 285 284 284 284 284 280 275 270 267 265 263 265 268 266 261 258 257 253 253 256 258 258 257 253 250 249 248 246 243 240 239 240 241 243 247 253 259 265
303 306 314 313 299 282 262 253 257 264 264 266 265 253 246 251 246 236 240 222 206 210 236 252 259 268 269 270 273 274 275 279 282 287 294 298 299 300 301 301 299 298 297 295 292 289 287 285 284 282 281 280 279 279 277 273 269 266 264 263 264 264 261 258 256 252 251 254 256 256 254 250 247 246 242 237 235 235 235 234 236 241 248 255 262 267
311 314 310 306 304 300 284 269 267 271 270 270 271 270 269 273 267 253 251 245 241 254 268 272 278 282 281 281 282 282 283 284 286 290 295 298 299 300 300 299 296 295 293 291 290 289 286 284 283 281 279 277 275 275 278 278 272 267 264 260 259 261 260 256 252 251 250 251 251 251 249 246 244 241 235 229 229 229 227 228 235 244 252 260 265 268
300 307 307 303 298 289 280 276 276 274 273 278 281 285 291 292 282 274 272 272 279 285 287 288 289 290 292 291 291 291 292 293 294 295 297 298 298 298 298 295 292 290 287 286 287 288 287 285 283 280 278 276 273 272 275 278 275 268 263 260 259 260 258 254 251 249 248 249 250 248 244 244 243 237 228 222 221 220 220 226 237 248 259 265 269 274
288 289 293 293 288 281 271 262 251 258 283 299 302 300 298 295 291 290 290 290 292 294 296 296 296 296 296 294 293 293 293 293 295 295 295 296 296 295 294 291 287 284 282 283 285 287 287 286 286 285 281 277 274 273 274 276 275 269 264 262 261 259 256 253 250 248 246 247 247 244 242 242 235 222 212 210 210 211 218 231 245 259 269 274 278 281
278 273 277 278 276 276 273 270 270 273 280 289 293 292 291 293 296 298 296 295 297 297 297 298 297 297 296 294 293 292 291 292 294 294 294 295 295 294 291 288 284 281 280 282 284 287 287 287 287 285 282 278 275 273 272 274 273 269 265 264 262 259 256 252 250 248 246 244 241 240 239 233 219 201 194 197 199 206 222 240 258 272 277 277 276 275
276 276 279 278 276 277 277 277 278 277 275 275 276 277 283 290 295 296 294 292 293 293 293 294 294 293 292 291 290 290 290 291 292 291 292 293 293 292 289 286 282 281 282 285 287 289 288 286 284 282 280 278 276 274 273 272 270 267 266 265 262 258 254 251 249 246 242 240 239 235 226 212 194 184 188 197 203 214 230 252 271 275 271 268 268 271
282 283 280 277 277 276 276 276 277 275 270 268 270 275 283 288 287 284 283 284 286 287 287 288 288 288 288 287 287 288 289 289 289 289 288 288 288 288 285 282 281 283 286 290 291 290 288 286 284 283 281 279 276 276 275 272 269 267 265 263 261 256 251 245 241 238 237 236 231 219 203 188 181 186 194 200 210 225 242 262 267 263 262 266 272 278
284 282 280 279 279 278 278 280 282 278 275 276 279 281 284 284 281 281 282 284 285 286 287 288 288 288 287 287 286 286 286 286 286 286 283 283 284 284 282 281 283 287 290 292 292 291 289 287 286 285 283 281 280 277 274 274 274 271 262 257 255 250 241 234 232 233 233 226 213 195 181 180 186 191 196 204 217 232 248 257 258 262 268 277 284 290
287 284 286 287 285 282 283 286 289 285 280 277 277 278 278 278 280 282 284 287 290 292 293 292 290 288 288 288 287 286 285 285 285 284 282 281 282 283 282 283 286 290 292 292 292 291 290 290 288 285 282 281 279 274 269 270 274 269 259 253 245 232 226 227 228 224 218 210 198 180 175 183 187 191 201 209 219 234 246 252 259 269 280 287 294 302
290 288 292 292 288 286 287 289 292 291 286 279 274 274 276 279 282 283 285 289 292 292 292 289 286 285 286 286 287 286 284 283 283 284 282 282 283 284 285 287 289 290 292 293 292 291 289 287 284 281 278 273 268 264 261 260 258 256 254 250 235 222 223 224 215 204 195 189 181 174 179 185 185 190 202 211 224 239 249 260 272 283 291 299 308 315
291 291 293 292 290 290 290 289 286 283 282 279 276 276 278 280 284 287 290 291 290 288 287 287 285 283 282 282 284 285 285 283 284 285 284 283 283 285 287 288 290 292 294 293 292 289 286 281 274 271 267 258 253 252 247 239 237 238 235 227 216 207 204 198 189 179 173 172 172 173 180 182 183 192 206 218 237 254 270 281 288 297 305 313 320 323
Height
3101 3101 3100 3100 3101 3102 3102 3103 3103 3104 3104 3104 3104 3105 3105 3105 3105 3105 3105 3105 3104 3103 3103 3103 3104 3104 3106 3107 3107 3108 3108 3108 3107 3106 3107 3109 3110 3111 3112 3113 3114 3115 3117 3118 3119 3120 3121 3121 3122 3122 3123 3124 3125 3125 3125 3125 3125 3125 3125 3124 3124 3124 3124 3123 3123 3122 3120 3119 3118 3117 3118 3118 3119 3119 3120 3121 3121 3121 3121 3122 3123 3123 3124 3124 3125 3126
3100 3099 3099 3100 3101 3102 3102 3102 3103 3103 3103 3104 3104 3104 3104 3104 3105 3105 3105 3105 3104 3103 3102 3102 3102 3103 3104 3106 3106 3107 3107 3107 3107 3106 3106 3107 3109 3110 3111 3112 3113 3114 3115 3116 3117 3118 3119 3119 3120 3121 3122 3123 3123 3124 3124 3124 3124 3124 3124 3123 3123 3123 3123 3123 3122 3121 3120 3119 3118 3116 3117 3117 3118 3119 3119 3120 3120 3121 3120 3120 3121 3122 3123 3123 3123 3124
3100 3099 3099 3100 3101 3101 3102 3102 3102 3102 3103 3103 3103 3104 3104 3104 3104 3104 3105 3105 3104 3103 3102 3101 3102 3102 3103 3105 3105 3106 3106 3106 3106 3106 3106 3107 3108 3108 3109 3111 3111 3112 3113 3114 3116 3117 3117 3118 3118 3119 3120 3121 3122 3122 3123 3123 3123 3123 3123 3122 3122 3122 3122 3122 3121 3120 3119 3119 3118 3117 3116 3116 3117 3118 3118 3119 3119 3120 3120 3119 3120 3120 3121 3121 3122 3122
3099 3099 3099 3100 3100 3101 3101 3101 3101 3102 3102 3102 3103 3103 3103 3104 3104 3103 3104 3104 3104 3103 3102 3102 3102 3102 3103 3103 3104 3105 3105 3105 3105 3106 3106 3106 3106 3107 3107 3108 3109 3109 3111 3112 3114 3115 3115 3116 3117 3118 3119 3119 3120 3121 3121 3122 3122 3122 3121 3121 3121 3121 3121 3121 3121 3120 3119 3119 3118 3118 3116 3116 3116 3116 3117 3117 3118 3119 3119 3119 3119 3119 3120 3120 3120 3121
3098 3098 3099 3099 3099 3100 3100 3100 3101 3101 3101 3101 3102 3102 3103 3103 3103 3102 3103 3103 3103 3103 3102 3102 3101 3101 3102 3102 3103 3103 3103 3104 3104 3105 3105 3105 3105 3105 3105 3105 3105 3106 3108 3110 3111 3112 3113 3114 3115 3116 3117 3118 3119 3119 3120 3120 3120 3120 3120 3120 3120 3120 3120 3120 3120 3119 3119 3119 3118 3118 3117 3116 3116 3116 3116 3117 3117 3118 3118 3118 3118 3119 3119 3119 3119 3119
3097 3097 3098 3098 3098 3098 3099 3099 3100 3100 3100 3100 3101 3101 3102 3102 3101 3101 3101 3101 3101 3101 3101 3101 3101 3099 3099 3101 3101 3102 3102 3102 3103 3103 3103 3103 3103 3103 3103 3103 3103 3103 3105 3107 3109 3110 3111 3113 3114 3115 3115 3116 3117 3118 3118 3118 3118 3118 3118 3118 3118 3119 3119 3119 3119 3118 3118 3118 3118 3118 3117 3116 3116 3116 3116 3116 3117 3118 3118 3118 3118 3118 3118 3119 3119 3119
3096 3097 3097 3097 3097 3097 3097 3098 3098 3099 3100 3100 3100 3101 3101 3100 3100 3100 3100 3100 3100 3100 3099 3100 3100 3098 3097 3099 3100 3100 3100 3100 3101 3100 3100 3101 3101 3101 3100 3100 3100 3101 3102 3104 3106 3108 3110 3111 3112 3113 3114 3115 3115 3116 3116 3117 3116 3116 3116 3117 3117 3117 3118 3118 3117 3117 3117 3117 3117 3117 3117 3116 3116 3116 3116 3117 3117 3118 3118 3118 3119 3118 3118 3119 3119 3119
3096 3096 3096 3096 3096 3095 3096 3096 3097 3098 3099 3099 3099 3100 3099 3099 3099 3098 3099 3099 3098 3098 3098 3099 3099 3098 3096 3097 3098 3098 3098 3098 3098 3097 3097 3098 3098 3098 3097 3097 3097 3098 3099 3101 3103 3105 3107 3109 3110 3111 3112 3112 3113 3114 3115 3115 3115 3115 3115 3115 3116 3116 3116 3116 3116 3116 3116 3116 3117 3117 3117 3116 3116 3116 3116 3117 3117 3118 3118 3118 3118 3118 3118 3118 3118 3119
3095 3095 3096 3095 3094 3094 3095 3095 3096 3097 3098 3098 3099 3098 3098 3098 3098 3097 3098 3098 3097 3097 3097 3097 3098 3097 3095 3096 3097 3096 3095 3095 3095 3094 3094 3094 3094 3094 3093 3093 3094 3095 3096 3098 3101 3103 3105 3107 3108 3109 3110 3110 3111 3112 3113 3114 3114 3113 3113 3114 3115 3115 3115 3115 3115 3115 3115 3115 3116 3117 3117 3116 3116 3116 3117 3117 3117 3118 3118 3118 3117 3117 3117 3117 3118 3118
3094 3095 3095 3094 3093 3093 3094 3095 3095 3096 3097 3097 3097 3097 3097 3097 3096 3096 3097 3096 3096 3096 3096 3096 3096 3096 3095 3094 3094 3093 3093 3093 3093 3092 3091 3090 3090 3090 3090 3090 3091 3092 3094 3096 3098 3101 3103 3105 3107 3107 3108 3108 3109 3111 3111 3112 3112 3112 3112 3113 3113 3114 3114 3114 3114 3114 3114 3114 3115 3116 3116 3116 3116 3116 3116 3117 3117 3117 3117 3117 3117 3117 3116 3116 3116 3117
3092 3093 3093 3093 3093 3093 3094 3094 3095 3095 3095 3095 3095 3095 3095 3095 3095 3095 3096 3095 3095 3095 3094 3094 3094 3095 3095 3092 3091 3092 3092 3092 3091 3089 3088 3087 3087 3087 3087 3088 3089 3089 3092 3094 3096 3098 3101 3103 3105 3106 3106 3107 3107 3109 3110 3110 3111 3111 3111 3111 3112 3112 3113 3113 3112 3112 3112 3113 3113 3114 3115 3115 3115 3116 3116 3116 3116 3117 3117 3116 3116 3116 3116 3116 3115 3115
3091 3091 3092 3092 3092 3093 3093 3093 3093 3094 3094 3094 3094 3094 3094 3094 3094 3094 3094 3094 3094 3093 3092 3092 3092 3093 3093 3090 3090 3091 3091 3090 3089 3087 3086 3085 3085 3084 3084 3085 3086 3087 3089 3092 3094 3096 3099 3101 3103 3104 3104 3105 3106 3107 3108 3109 3109 3110 3110 3110 3111 3111 3111 3111 3111 3111 3111 3112 3112 3113 3114 3114 3114 3115 3115 3115 3115 3115 3115 3115 3115 3115 3115 3115 3115 3114
3089 3089 3090 3091 3091 3091 3092 3092 3092 3092 3092 3092 3092 3093 3093 3093 3094 3094 3093 3093 3092 3091 3090 3091 3091 3091 3090 3089 3089 3090 3089 3089 3088 3086 3085 3084 3083 3083 3082 3083 3083 3084 3086 3089 3092 3094 3097 3099 3101 3102 3103 3103 3104 3105 3106 3107 3108 3109 3109 3109 3109 3109 3110 3111 3111 3110 3110 3111 3111 3112 3113 3113 3113 3114 3114 3114 3114 3114 3114 3114 3114 3114 3114 3114 3114 3113
3088 3088 3088 3089 3089 3089 3090 3090 3090 3090 3090 3090 3090 3090 3091 3093 3094 3094 3093 3093 3091 3089 3089 3090 3090 3089 3088 3088 3088 3088 3087 3086 3085 3085 3084 3083 3082 3082 3082 3082 3081 3081 3083 3086 3090 3093 3095 3098 3099 3100 3101 3102 3103 3103 3104 3105 3106 3107 3107 3107 3108 3108 3109 3109 3110 3109 3109 3110 3110 3111 3112 3112 3112 3112 3113 3113 3113 3113 3113 3113 3113 3113 3113 3113 3113 3112
3087 3087 3087 3087 3087 3087 3087 3088 3088 3089 3089 3089 3088 3088 3089 3090 3091 3091 3091 3090 3089 3088 3088 3089 3088 3087 3086 3087 3087 3086 3086 3085 3084 3083 3083 3083 3083 3082 3081 3082 3081 3080 3082 3085 3088 3091 3094 3096 3097 3098 3099 3100 3101 3102 3103 3104 3104 3105 3106 3106 3107 3107 3108 3108 3109 3109 3109 3109 3109 3110 3111 3111 3111 3111 3111 3111 3112 3112 3111 3111 3111 3111 3111 3111 3111 3111
3086 3085 3085 3086 3086 3086 3086 3086 3087 3087 3087 3087 3087 3087 3087 3087 3087 3088 3088 3087 3087 3087 3087 3087 3087 3086 3087 3087 3086 3085 3085 3084 3084 3083 3082 3083 3082 3082 3082 3082 3081 3081 3081 3083 3086 3089 3091 3094 3096 3097 3098 3099 3100 3101 3101 3102 3103 3104 3104 3105 3105 3106 3107 3107 3108 3108 3108 3108 3108 3108 3109 3110 3109 3109 3109 3110 3110 3110 3110 3110 3110 3110 3110 3110 3110 3110
3084 3084 3084 3084 3084 3085 3085 3085 3085 3085 3085 3085 3086 3086 3086 3086 3086 3086 3086 3086 3086 3087 3086 3085 3085 3085 3087 3087 3085 3084 3084 3084 3083 3081 3081 3081 3082 3082 3082 3081 3081 3081 3081 3082 3083 3086 3088 3091 3093 3095 3096 3097 3098 3099 3099 3100 3101 3102 3103 3104 3104 3105 3106 3106 3107 3107 3107 3107 3107 3107 3108 3108 3108 3108 3108 3109 3109 3108 3108 3108 3108 3109 3109 3109 3108 3108
3083 3082 3082 3083 3083 3083 3084 3083 3083 3083 3083 3084 3084 3085 3085 3085 3085 3084 3084 3085 3087 3087 3085 3083 3083 3084 3085 3085 3084 3083 3083 3082 3081 3080 3080 3080 3081 3082 3081 3081 3081 3081 3081 3081 3082 3084 3086 3087 3090 3092 3093 3095 3095 3096 3097 3098 3100 3101 3102 3103 3103 3104 3104 3105 3106 3106 3106 3106 3106 3106 3107 3107 3108 3108 3108 3108 3107 3107 3107 3107 3107 3107 3107 3107 3107 3106
3081 3081 3081 3081 3082 3082 3082 3082 3082 3082 3082 3082 3082 3083 3083 3083 3083 3083 3084 3084 3085 3087 3085 3082 3081 3081 3082 3083 3082 3082 3082 3082 3081 3081 3080 3080 3080 3081 3081 3081 3081 3081 3081 3081 3081 3083 3084 3085 3087 3088 3090 3091 3093 3094 3095 3096 3097 3099 3100 3101 3102 3102 3103 3104 3105 3105 3105 3105 3105 3105 3106 3106 3107 3107 3107 3106 3106 3106 3106 3106 3105 3105 3105 3105 3104 3104
3081 3080 3079 3079 3080 3080 3080 3081 3081 3081 3081 3080 3081 3081 3082 3082 3082 3082 3083 3083 3083 3085 3085 3082 3080 3079 3079 3080 3080 3080 3081 3081 3081 3081 3081 3080 3080 3080 3079 3080 3081 3081 3081 3081 3081 3082 3083 3084 3085 3086 3087 3088 3090 3092 3093 3094 3095 3096 3098 3098 3099 3100 3101 3101 3102 3103 3103 3104 3104 3104 3104 3105 3105 3105 3105 3105 3105 3105 3104 3104 3104 3103 3103 3103 3102 3102
3080 3079 3078 3078 3079 3079 3079 3078 3078 3079 3079 3079 3080 3080 3080 3080 3081 3082 3082 3082 3082 3083 3084 3082 3080 3078 3078 3079 3079 3079 3079 3079 3079 3080 3080 3080 3080 3079 3079 3079 3079 3080 3080 3080 3080 3081 3081 3082 3083 3084 3085 3086 3087 3088 3089 3091 3092 3094 3095 3096 3097 3097 3098 3099 3100 3101 3101 3101 3102 3102 3103 3103 3103 3103 3103 3103 3103 3103 3102 3102 3102 3101 3101 3100 3100 3099
3079 3078 3077 3077 3077 3077 3076 3076 3077 3077 3077 3077 3078 3078 3078 3078 3079 3080 3081 3081 3081 3081 3081 3081 3080 3078 3078 3078 3078 3078 3078 3078 3078 3078 3078 3079 3078 3078 3078 3078 3078 3078 3079 3079 3080 3080 3081 3082 3083 3083 3084 3085 3085 3085 3086 3087 3088 3090 3091 3093 3094 3095 3095 3096 3097 3098 3099 3099 3100 3101 3101 3101 3101 3101 3101 3101 3101 3101 3100 3100 3099 3099 3099 3098 3098 3097
3077 3076 3075 3075 3075 3075 3075 3074 3075 3075 3075 3075 3075 3075 3076 3076 3077 3079 3079 3079 3079 3079 3078 3079 3079 3077 3077 3077 3077 3077 3077 3076 3077 3077 3077 3077 3077 3077 3077 3077 3077 3077 3077 3077 3078 3079 3080 3081 3082 3082 3083 3083 3083 3083 3084 3085 3085 3086 3087 3089 3090 3091 3092 3093 3094 3095 3096 3096 3097 3098 3099 3099 3099 3099 3099 3099 3099 3099 3099 3098 3097 3097 3096 3096 3095 3095
3075 3074 3073 3073 3073 3073 3073 3073 3073 3073 3073 3073 3073 3073 3074 3074 3075 3076 3076 3076 3076 3076 3076 3077 3077 3075 3075 3075 3075 3075 3075 3075 3075 3074 3075 3075 3075 3075 3075 3075 3075 3075 3075 3075 3076 3078 3079 3080 3080 3080 3081 3081 3080 3080 3081 3082 3082 3083 3084 3085 3086 3088 3089 3090 3091 3092 3093 3093 3094 3095 3095 3096 3097 3097 3097 3097 3097 3097 3097 3096 3096 3095 3094 3093 3093 3092
3073 3073 3072 3072 3072 3072 3072 3073 3072 3072 3072 3072 3072 3072 3072 3073 3073 3074 3074 3074 3074 3073 3074 3075 3073 3072 3073 3072 3072 3073 3073 3073 3073 3072 3072 3072 3072 3073 3072 3072 3072 3073 3073 3074 3074 3076 3077 3077 3078 3078 3078 3078 3078 3078 3079 3079 3080 3080 3080 3081 3082 3083 3085 3087 3088 3089 3090 3090 3091 3091 3092 3092 3093 3094 3094 3095 3095 3095 3095 3095 3094 3093 3092 3091 3090 3090
3071 3071 3071 3071 3071 3071 3071 3071 3070 3070 3070 3070 3070 3070 3070 3071 3072 3072 3072 3072 3071 3071 3071 3071 3070 3070 3070 3069 3070 3071 3071 3070 3070 3070 3070 3070 3070 3070 3070 3069 3069 3070 3070 3071 3071 3073 3074 3074 3075 3075 3076 3076 3075 3076 3077 3077 3077 3077 3077 3077 3077 3078 3080 3082 3084 3085 3086 3086 3087 3087 3088 3088 3089 3089 3091 3092 3092 3092 3092 3092 3092 3090 3089 3088 3087 3087
3069 3069 3068 3068 3068 3067 3068 3068 3067 3068 3067 3067 3068 3068 3068 3069 3070 3070 3070 3070 3070 3070 3068 3067 3068 3069 3068 3067 3068 3069 3068 3067 3067 3068 3067 3068 3068 3068 3067 3067 3067 3067 3068 3068 3068 3069 3071 3071 3071 3072 3072 3073 3073 3073 3074 3073 3073 3074 3074 3074 3074 3074 3075 3076 3078 3080 3081 3082 3083 3083 3084 3084 3085 3085 3086 3088 3088 3089 3089 3088 3088 3087 3086 3085 3084 3084
3067 3066 3066 3066 3065 3064 3064 3065 3065 3065 3064 3064 3065 3065 3066 3067 3067 3067 3067 3067 3068 3068 3064 3063 3066 3067 3065 3065 3066 3066 3066 3065 3065 3065 3065 3065 3065 3064 3064 3064 3064 3064 3065 3065 3065 3066 3067 3067 3067 3067 3068 3068 3069 3069 3070 3070 3070 3070 3070 3070 3070 3070 3070 3071 3072 3074 3075 3077 3078 3079 3080 3080 3081 3080 3081 3082 3082 3082 3083 3083 3083 3083 3082 3081 3081 3080
3065 3064 3064 3063 3062 3062 3062 3062 3062 3062 3061 3062 3062 3062 3063 3064 3064 3063 3063 3064 3065 3064 3060 3061 3063 3062 3061 3061 3061 3062 3062 3062 3062 3062 3062 3062 3061 3061 3061 3061 3061 3061 3061 3062 3062 3062 3063 3063 3063 3063 3063 3063 3064 3064 3065 3065 3065 3065 3066 3066 3066 3066 3066 3066 3067 3068 3069 3070 3072 3074 3075 3076 3076 3075 3075 3076 3076 3076 3075 3076 3077 3077 3078 3078 3077 3077
3063 3062 3062 3061 3059 3059 3059 3059 3059 3059 3058 3058 3059 3059 3060 3061 3061 3061 3061 3061 3062 3060 3058 3059 3059 3058 3058 3057 3057 3058 3059 3059 3059 3059 3059 3059 3058 3058 3058 3058 3058 3058 3058 3058 3058 3059 3059 3059 3059 3059 3059 3059 3059 3059 3059 3060 3060 3061 3061 3061 3061 3061 3061 3061 3062 3062 3063 3064 3065 3067 3069 3070 3071 3071 3070 3070 3070 3070 3069 3069 3069 3071 3072 3073 3073 3073
3061 3060 3059 3059 3057 3056 3056 3057 3056 3056 3055 3054 3054 3056 3057 3057 3058 3058 3058 3058 3058 3056 3056 3056 3055 3054 3055 3055 3054 3055 3055 3055 3056 3056 3056 3056 3056 3056 3055 3055 3055 3055 3055 3055 3055 3055 3055 3055 3055 3055 3055 3055 3054 3054 3054 3054 3055 3055 3056 3056 3056 3057 3057 3057 3057 3058 3058 3059 3060 3061 3062 3063 3064 3065 3064 3063 3063 3063 3063 3063 3063 3063 3065 3067 3068 3068
3058 3057 3056 3057 3055 3051 3053 3055 3054 3054 3053 3049 3048 3051 3053 3054 3054 3054 3054 3054 3054 3053 3053 3053 3051 3051 3052 3052 3051 3051 3052 3052 3052 3053 3053 3053 3053 3053 3052 3052 3052 3052 3051 3051 3051 3051 3051 3051 3051 3051 3050 3050 3050 3050 3050 3050 3050 3050 3051 3051 3051 3052 3052 3053 3053 3054 3054 3055 3055 3056 3056 3057 3058 3059 3058 3056 3056 3057 3058 3058 3059 3059 3060 3061 3062 3063
3055 3054 3053 3055 3052 3047 3049 3052 3051 3052 3050 3043 3041 3045 3048 3049 3050 3050 3050 3050 3050 3050 3049 3048 3048 3048 3048 3048 3048 3048 3049 3049 3049 3049 3049 3049 3049 3049 3049 3048 3048 3047 3047 3046 3046 3046 3046 3046 3046 3045 3045 3045 3045 3045 3045 3045 3045 3045 3045 3045 3046 3046 3047 3048 3048 3049 3050 3050 3051 3051 3052 3052 3052 3052 3052 3051 3052 3053 3053 3054 3055 3056 3056 3056 3057 3058
3050 3050 3049 3051 3048 3044 3045 3049 3049 3048 3043 3037 3037 3042 3044 3045 3046 3046 3046 3046 3046 3046 3045 3045 3045 3046 3046 3045 3045 3045 3046 3046 3046 3046 3046 3046 3045 3045 3044 3044 3043 3042 3042 3041 3041 3041 3041 3040 3040 3040 3040 3040 3040 3040 3040 3040 3040 3040 3040 3040 3040 3041 3041 3042 3043 3044 3044 3045 3046 3047 3047 3048 3047 3047 3047 3047 3047 3048 3049 3050 3051 3051 3051 3051 3052 3053
3046 3046 3045 3046 3045 3042 3042 3046 3047 3042 3035 3034 3037 3040 3040 3041 3042 3042 3042 3042 3042 3042 3042 3043 3043 3043 3043 3043 3042 3042 3042 3042 3042 3042 3042 3041 3041 3041 3040 3039 3038 3038 3037 3037 3036 3036 3036 3035 3035 3035 3035 3035 3035 3035 3035 3035 3035 3034 3035 3035 3035 3035 3036 3036 3037 3038 3039 3040 3042 3042 3043 3044 3043 3041 3041 3042 3042 3043 3045 3046 3046 3046 3046 3047 3048 3049
3043 3043 3042 3042 3042 3040 3040 3041 3040 3034 3031 3034 3036 3036 3037 3038 3038 3039 3039 3039 3039 3040 3040 3040 3039 3040 3040 3039 3039 3038 3038 3039 3039 3039 3038 3038 3037 3037 3036 3035 3035 3034 3033 3033 3032 3031 3031 3030 3030 3029 3029 3030 3030 3030 3030 3030 3029 3029 3029 3029 3029 3029 3030 3031 3032 3032 3034 3035 3036 3037 3038 3039 3039 3037 3037 3037 3037 3038 3040 3041 3040 3041 3043 3044 3045 3045
3040 3040 3039 3038 3038 3037 3036 3035 3034 3031 3031 3032 3033 3033 3034 3035 3035 3036 3036 3036 3036 3036 3036 3036 3036 3036 3036 3036 3036 3035 3035 3034 3035 3035 3036 3035 3034 3033 3033 3032 3031 3030 3030 3029 3028 3027 3026 3026 3025 3024 3024 3024 3024 3025 3025 3025 3024 3023 3022 3023 3023 3023 3024 3025 3026 3027 3028 3029 3030 3032 3033 3034 3035 3034 3033 3033 3033 3033 3034 3034 3036 3039 3041 3041 3041 3041
3039 3038 3037 3036 3034 3034 3034 3033 3032 3031 3029 3028 3029 3031 3031 3032 3033 3033 3032 3032 3032 3032 3032 3032 3033 3033 3033 3033 3032 3032 3031 3030 3031 3032 3033 3032 3031 3030 3029 3028 3028 3026 3026 3025 3024 3023 3022 3021 3020 3019 3018 3018 3018 3019 3019 3019 3018 3017 3017 3017 3018 3017 3017 3018 3020 3021 3022 3023 3024 3026 3028 3029 3029 3030 3029 3029 3029 3030 3030 3032 3035 3037 3037 3037 3037 3037
3037 3036 3035 3034 3033 3032 3033 3031 3030 3029 3027 3026 3027 3028 3028 3029 3030 3030 3029 3029 3029 3029 3029 3029 3030 3030 3030 3029 3029 3029 3028 3026 3026 3029 3030 3029 3028 3027 3026 3025 3024 3023 3022 3020 3019 3018 3016 3015 3014 3013 3013 3012 3012 3013 3013 3013 3012 3012 3011 3012 3012 3012 3011 3012 3014 3016 3017 3018 3019 3020 3022 3023 3024 3024 3025 3025 3025 3026 3028 3030 3033 3034 3033 3033 3033 3034
3034 3034 3033 3032 3031 3031 3031 3029 3028 3027 3026 3026 3026 3026 3026 3026 3027 3028 3027 3026 3026 3026 3027 3026 3027 3027 3026 3026 3026 3025 3025 3023 3022 3024 3025 3025 3024 3023 3022 3021 3019 3018 3017 3016 3014 3012 3011 3009 3008 3007 3007 3007 3007 3007 3007 3006 3006 3005 3006 3007 3006 3006 3006 3007 3009 3011 3012 3012 3013 3015 3016 3018 3018 3019 3021 3022 3022 3024 3025 3026 3027 3028 3029 3030 3030 3031
3031 3031 3031 3030 3030 3029 3029 3027 3026 3025 3025 3024 3024 3024 3024 3024 3025 3026 3025 3024 3024 3024 3024 3024 3024 3024 3023 3023 3022 3021 3021 3021 3019 3019 3020 3020 3019 3018 3018 3016 3015 3013 3012 3010 3009 3007 3005 3004 3002 3001 3001 3001 3001 3001 3000 2999 2998 2999 3000 3000 3000 3001 3002 3002 3003 3004 3005 3006 3008 3010 3011 3013 3014 3015 3015 3016 3018 3020 3021 3022 3023 3025 3026 3027 3027 3028
3030 3029 3029 3029 3028 3028 3027 3026 3025 3024 3023 3022 3022 3022 3022 3022 3024 3023 3023 3023 3023 3022 3022 3022 3021 3021 3021 3020 3019 3018 3017 3017 3016 3016 3016 3015 3014 3013 3013 3011 3010 3009 3007 3005 3004 3002 2999 2997 2997 2996 2995 2995 2995 2994 2994 2992 2991 2992 2993 2993 2994 2996 2997 2996 2997 2998 2999 3001 3003 3005 3007 3009 3010 3010 3010 3012 3014 3015 3017 3019 3021 3022 3024 3024 3024 3024
3030 3028 3027 3027 3026 3025 3025 3024 3023 3022 3021 3021 3021 3021 3020 3021 3021 3020 3020 3021 3021 3020 3020 3019 3019 3018 3018 3016 3016 3015 3013 3013 3012 3011 3011 3010 3009 3008 3007 3006 3004 3003 3002 3000 2999 2997 2994 2992 2991 2990 2989 2989 2988 2988 2987 2986 2985 2985 2986 2987 2989 2990 2990 2990 2991 2992 2994 2996 2998 3000 3002 3004 3005 3005 3006 3008 3010 3012 3014 3017 3019 3020 3021 3021 3020 3020
3029 3028 3026 3025 3025 3024 3023 3022 3022 3021 3020 3020 3019 3019 3018 3018 3018 3018 3017 3017 3017 3017 3017 3016 3015 3015 3014 3013 3012 3010 3009 3008 3008 3007 3005 3004 3003 3002 3001 3000 2998 2997 2996 2995 2993 2991 2989 2987 2985 2984 2983 2982 2982 2981 2980 2979 2978 2978 2979 2981 2983 2984 2983 2984 2985 2987 2989 2991 2993 2995 2997 2999 2999 2998 3000 3003 3007 3009 3012 3015 3016 3017 3018 3017 3017 3016
3026 3026 3025 3023 3022 3021 3020 3019 3019 3020 3019 3018 3017 3016 3016 3015 3015 3015 3014 3013 3013 3013 3013 3012 3011 3011 3010 3008 3007 3005 3004 3004 3003 3002 3000 2998 2997 2997 2995 2994 2993 2991 2990 2989 2988 2986 2984 2982 2980 2978 2977 2976 2975 2975 2974 2973 2972 2971 2972 2975 2977 2977 2977 2978 2980 2983 2985 2987 2989 2990 2991 2993 2993 2994 2997 3001 3005 3008 3010 3013 3014 3014 3014 3014 3013 3013
3023 3023 3022 3020 3019 3018 3016 3015 3016 3017 3017 3016 3015 3014 3013 3012 3012 3012 3011 3010 3010 3010 3009 3008 3007 3006 3005 3004 3002 3000 3000 2999 2997 2996 2995 2993 2992 2991 2990 2989 2988 2986 2985 2984 2982 2981 2978 2976 2974 2972 2970 2969 2969 2968 2967 2966 2965 2965 2966 2968 2970 2970 2971 2973 2975 2978 2980 2983 2985 2986 2988 2990 2992 2994 2997 3000 3003 3005 3008 3010 3011 3012 3012 3011 3010 3009
3021 3020 3018 3016 3016 3014 3012 3012 3013 3014 3013 3013 3012 3011 3011 3010 3010 3009 3008 3007 3007 3006 3005 3004 3003 3002 3001 3000 2998 2996 2994 2993 2992 2990 2989 2988 2987 2986 2985 2983 2982 2981 2980 2979 2977 2975 2973 2970 2968 2966 2964 2963 2963 2962 2960 2958 2957 2958 2959 2961 2963 2963 2964 2967 2970 2973 2977 2980 2982 2984 2986 2989 2991 2993 2996 2999 3002 3004 3006 3008 3009 3009 3009 3008 3007 3005
3018 3016 3014 3013 3012 3011 3009 3009 3010 3010 3009 3009 3008 3008 3007 3007 3006 3005 3004 3003 3002 3002 3001 3000 2999 2997 2996 2995 2993 2991 2989 2988 2987 2985 2984 2983 2982 2981 2980 2978 2977 2976 2975 2974 2972 2969 2967 2964 2962 2960 2959 2957 2957 2956 2954 2951 2951 2951 2952 2954 2956 2957 2959 2962 2966 2970 2975 2978 2979 2982 2985 2988 2991 2993 2996 2999 3001 3003 3005 3006 3007 3007 3005 3004 3003 3002
3014 3013 3011 3010 3008 3006 3005 3006 3006 3005 3004 3005 3005 3005 3004 3003 3001 3001 3000 2999 2998 2997 2996 2995 2994 2993 2991 2990 2989 2986 2984 2983 2983 2981 2978 2978 2977 2976 2975 2974 2973 2971 2970 2969 2967 2964 2961 2959 2956 2955 2954 2953 2952 2951 2949 2947 2946 2945 2946 2949 2952 2954 2956 2959 2963 2968 2972 2975 2978 2982 2985 2987 2990 2993 2996 2998 3001 3002 3004 3004 3004 3003 3002 3001 3000 2999
3011 3009 3009 3007 3004 3001 3002 3003 3003 3000 2998 2999 3001 3000 2999 2999 2997 2996 2996 2995 2994 2993 2992 2990 2989 2988 2987 2986 2984 2982 2979 2979 2978 2976 2974 2973 2973 2972 2970 2969 2968 2967 2966 2964 2961 2958 2956 2953 2952 2951 2950 2950 2949 2947 2946 2944 2943 2942 2944 2946 2949 2951 2953 2957 2960 2964 2968 2972 2977 2982 2985 2987 2990 2993 2996 2998 3000 3001 3001 3001 3000 2999 2999 2998 2997 2997
3008 3006 3006 3004 3001 2999 2999 3000 3000 2997 2994 2994 2995 2995 2994 2994 2993 2992 2991 2991 2989 2988 2987 2985 2984 2983 2982 2981 2980 2978 2976 2974 2973 2971 2970 2969 2968 2967 2966 2964 2963 2962 2961 2959 2956 2954 2951 2950 2949 2949 2948 2947 2946 2945 2944 2943 2942 2941 2943 2945 2947 2950 2952 2955 2959 2964 2969 2973 2978 2982 2986 2988 2991 2993 2996 2998 2999 2998 2998 2998 2997 2997 2996 2996 2995 2994